This demonstration page uses our WeatherBlox Daily Observations layout. Learn more.

Left ArrowRight Arrow

Hourly Observations for December 7, 2021

Temp ( °F °C ) Dew Point ( °F °C ) Humidity (%) Winds ( mph kmh ) Pressure ( in mb ) Visibility ( mi km ) Precip ( " mm )
12:06 am 00:06 Cloudy 57 13.9 40 4.4 53 53 N 16 26 29.98 1015 10 16 0.00 0.00
12:59 am 00:59 Cloudy 56 13.3 37 2.8 49 49 N 16 26 30.01 1016 10 16 0.00 0.00
1:59 am 01:59 Cloudy 53 11.7 24 -4.4 32 32 N 20 31 30.05 1018 10 16 0.00 0.00
2:59 am 02:59 Cloudy 50 10 21 -6.1 32 32 VRB 7 11 30.10 1019 10 16 0.00 0.00
3:59 am 03:59 Mostly Cloudy 48 8.9 19 -7.2 32 32 N 17 28 30.13 1020 10 16 0.00 0.00
4:59 am 04:59 Mostly Cloudy 47 8.3 19 -7.2 33 33 N 14 22 30.15 1021 10 16 0.00 0.00
5:59 am 05:59 Cloudy 45 7.2 20 -6.7 37 37 N 17 28 30.18 1022 10 16 0.00 0.00
6:59 am 06:59 Mostly Cloudy 43 6.1 18 -7.8 37 37 N 18 30 30.22 1024 10 16 0.00 0.00
7:59 am 07:59 Partly Cloudy 43 6.1 21 -6.1 42 42 N 16 26 30.24 1024 10 16 0.00 0.00
8:59 am 08:59 Cloudy 45 7.2 21 -6.1 39 39 N 14 22 30.25 1025 10 16 0.00 0.00
9:59 am 09:59 Mostly Cloudy 45 7.2 23 -5 42 42 N 14 22 30.27 1025 10 16 0.00 0.00
10:59 am 10:59 Mostly Cloudy 46 7.8 21 -6.1 37 37 N 13 20 30.26 1025 10 16 0.00 0.00
11:59 am 11:59 Mostly Cloudy 47 8.3 21 -6.1 36 36 N 10 17 30.23 1024 10 16 0.00 0.00
12:59 pm 12:59 Mostly Cloudy 48 8.9 24 -4.4 39 39 N 10 17 30.22 1023 10 16 0.00 0.00
1:59 pm 13:59 Mostly Cloudy 47 8.3 21 -6.1 36 36 NE 10 17 30.22 1023 10 16 0.00 0.00
2:59 pm 14:59 Mostly Cloudy 46 7.8 19 -7.2 34 34 VRB 7 11 30.20 1023 10 16 0.00 0.00
3:59 pm 15:59 Partly Cloudy 45 7.2 20 -6.7 37 37 NE 6 9 30.21 1023 10 16 0.00 0.00
4:59 pm 16:59 Mostly Cloudy 44 6.7 20 -6.7 38 38 NE 5 7 30.21 1023 10 16 0.00 0.00
5:59 pm 17:59 Partly Cloudy 39 3.9 22 -5.6 50 50 Calm 30.21 1023 10 16 0.00 0.00
6:59 pm 18:59 Mostly Clear 38 3.3 24 -4.4 57 57 Calm 30.20 1023 10 16 0.00 0.00
7:59 pm 19:59 Mostly Clear 37 2.8 25 -3.9 62 62 Calm 30.20 1023 10 16 0.00 0.00
8:59 pm 20:59 Mostly Clear 38 3.3 25 -3.9 60 60 Calm 30.18 1022 10 16 0.00 0.00
9:59 pm 21:59 Mostly Cloudy 43 6.1 28 -2.2 56 56 NNE 8 13 30.17 1022 10 16 0.00 0.00
10:59 pm 22:59 Mostly Cloudy 42 5.6 29 -1.7 60 60 Calm 30.17 1022 10 16 0.00 0.00
11:59 pm 23:59 Mostly Cloudy 46 7.8 30 -1.1 54 54 ENE 6 9 30.14 1021 10 16 0.00 0.00

Powered by AerisWeather